Regional Weather Roundup
Issued by NWS Bismarck, ND

Home | Current Version | Previous Version | Text Only | Print | Product List | Glossary On
Versions: 1 2 3 4 5 6 7 8 9 10 11 12 13 14 15 16 17 18 19 20 21 22 23 24 25 26 27 28 29 30 31 32 33 34 35 36 37 38 39 40 41 42 43 44 45 46 47 48 49 50
000
ASUS43 KBIS 250002
RWRBIS

NWR BROADCAST TEXT
NATIONAL WEATHER SERVICE BISMARCK ND
700 PM CDT TUE MAY 24 2016

NOTE: "FAIR" INDICATES FEW OR NO CLOUDS BELOW 12,000 FEET WITH NO
SIGNIFICANT WEATHER AND/OR OBSTRUCTIONS TO VISIBILITY.


CITY           SKY/WX    TMP DP  RH WIND       PRES   REMARKS
WILLISTON      MOSUNNY   71  37  28 W7        29.85F
MINOT          SUNNY     76  39  26 S6        29.85F
MINOT AFB      NOT AVBL
BISMARCK       SUNNY     77  43  29 S12       29.84F
DICKINSON      CLOUDY    65  42  43 NE9       29.83F
GARRISON         N/A     74  45  35 W3        29.85F
HETTINGER ARPT CLOUDY    71  43  36 E14       29.81F
JAMESTOWN      NOT AVBL
CARRINGTON     FAIR      77  41  27 S9        29.88S
HAZEN          FAIR      73  37  27 CALM      29.86F
MANDAN         FAIR      75  41  29 SE3       29.86S
OAKES            N/A    N/A N/A N/A MISG        N/A
STANLEY        FAIR      68  41  37 SW9G16    29.89F
$$

CITY           SKY/WX    TMP DP  RH WIND       PRES   REMARKS
GRAND FORKS    MOSUNNY   79  48  33 N3        29.85F
GRAND FORKS AF NOT AVBL
DEVILS LAKE    SUNNY     76  42  29 SE6       29.87
FARGO          SUNNY     83  40  21 N9        29.84S
CAVALIER       FAIR      75  50  41 SE7       29.86S
GRAFTON        FAIR      75  52  43 S9        29.88S
GWINNER        FAIR      81  48  32 N12       29.84F
LANGDON        FAIR      75  43  31 W10       29.88S
$$

CITY           SKY/WX    TMP DP  RH WIND       PRES   REMARKS
ABERDEEN       SUNNY     83  46  27 N7        29.82F
MOBRIDGE       SUNNY     79  46  31 SE3       29.80F
BUFFALO          N/A     73  41  31 SE18      29.75F
RAPID CITY     LGT RAIN  61  50  67 W10       29.88R
GLASGOW        PTSUNNY   63  41  44 W5        29.86S
SIDNEY         MOSUNNY   70  40  33 W7        29.85F
WOLF POINT     MOSUNNY   68  41  37 W12       29.86F
GLENDIVE       SUNNY     68  39  34 N3        29.87F
MILES CITY     MOSUNNY   70  40  33 N8        29.81F
BAKER          PTSUNNY   69  40  34 E8        29.82F
$$

CITY           SKY/WX    TMP DP  RH WIND       PRES   REMARKS
BILLINGS       CLOUDY    61  39  44 VRB5      29.87F
GREAT FALLS    PTSUNNY   58  35  42 CALM      29.88R
$$





USA.gov is the U.S. government's official web portal to all federal, state and local government web resources and services.